Weather History for KDIK - December, 2012

Change the Weather History Date:

Thursday, December 20, 2012

  Actual Average Record
Temperature  
Mean Temperature 14 °F 17 °F  
Max Temperature 27 °F 27 °F 59 °F (1941)
Min Temperature 0 °F 6 °F -33 °F (1929)
Degree Days  
Heating Degree Days 51 48  
Month to date heating degree days 851 921  
Since 1 July heating degree days 2775 2998  
Cooling Degree Days 0 0  
Month to date cooling degree days 0 0  
Year to date cooling degree days 591 419  
Moisture  
Dew Point 5 °F    
Average Humidity 69    
Maximum Humidity 87    
Minimum Humidity 50    
Precipitation  
Precipitation 0.00 in 0.00 in 0.16 in (1953)
Month to date precipitation 0.19 0.14  
Year to date precipitation 10.34 15.67  
Sea Level Pressure  
Sea Level Pressure 30.16 in    
Wind  
Wind Speed 7 mph (SW)    
Max Wind Speed 13 mph    
Max Gust Speed 15 mph    
Visibility 10 miles    
Events      
T = Trace of Precipitation, MM = Missing Value Source: NWS Daily Summary

Daily Weather History Graph

Daily Weather History Graph

Search for Another Location

Airport or City:

Trip Planner

Search our weather history database for the weather conditions in past years. The results will help you decide how hot, cold, wet, or windy it might be!

Date:

Astronomy

Dec. 20, 2012 Rise Set
Actual Time 7:33 AM MST 4:05 PM MST
Civil Twilight 6:57 AM MST 4:40 PM MST
Nautical Twilight 6:19 AM MST 5:19 PM MST
Astronomical Twilight 5:42 AM MST 5:56 PM MST
Moon 11:42 AM MST (12/20) 12:02 AM MST (12/20)
Length of Visible Light 9h 42m
Length of Day
8h 32m
First Quarter, 56% of the Moon is Illuminated
Dec 20
First Quarter
Dec 28
Full
Jan 4
Last Quarter
Jan 11
New
Jan 18
First Quarter

Hourly Weather History & Observations

Time (MST) Temp. Windchill Dew Point Humidity Pressure Visibility Wind Dir Wind Speed Gust Speed Precip Events Conditions
12:56 AM 6.1 °F -6.8 °F 1.0 °F 80% 30.17 in 10.0 mi SW 8.1 mph - N/A   Clear
1:56 AM 3.9 °F -8.2 °F -0.0 °F 84% 30.18 in 10.0 mi SW 6.9 mph - N/A   Clear
2:56 AM 9.0 °F -2.2 °F 3.9 °F 80% 30.17 in 10.0 mi WSW 6.9 mph - N/A   Clear
3:56 AM 5.0 °F -6.9 °F -0.0 °F 80% 30.17 in 10.0 mi West 6.9 mph - N/A   Clear
4:56 AM 6.1 °F -2.8 °F -0.0 °F 76% 30.17 in 10.0 mi West 4.6 mph - N/A   Clear
5:56 AM 5.0 °F -5.6 °F -0.9 °F 76% 30.19 in 10.0 mi SW 5.8 mph - N/A   Clear
6:56 AM 5.0 °F -2.1 °F -2.0 °F 73% 30.19 in 10.0 mi WSW 3.5 mph - N/A   Clear
7:56 AM 5.0 °F -4.1 °F -0.9 °F 76% 30.19 in 10.0 mi SSW 4.6 mph - N/A   Scattered Clouds
8:56 AM 12.0 °F 1.5 °F 6.1 °F 77% 30.19 in 10.0 mi SW 6.9 mph - N/A   Clear
9:56 AM 17.1 °F 7.6 °F 9.0 °F 71% 30.20 in 10.0 mi SW 6.9 mph - N/A   Partly Cloudy
10:56 AM 21.0 °F 14.6 °F 9.0 °F 60% 30.16 in 10.0 mi WSW 4.6 mph - N/A   Partly Cloudy
11:56 AM 23.0 °F 13.9 °F 10.0 °F 58% 30.15 in 10.0 mi WSW 8.1 mph - N/A   Clear
1:56 PM 27.0 °F 23.0 °F 12.0 °F 53% 30.13 in 10.0 mi NW 3.5 mph - N/A   Clear
2:56 PM 25.0 °F - 12.0 °F 58% 30.13 in 10.0 mi Calm Calm - N/A   Clear
3:56 PM 19.9 °F 14.9 °F 10.0 °F 65% 30.14 in 10.0 mi South 3.5 mph - N/A   Clear
4:56 PM 16.0 °F 8.8 °F 7.0 °F 68% 30.15 in 10.0 mi SSW 4.6 mph - N/A   Clear
5:56 PM 12.0 °F 4.1 °F 5.0 °F 73% 30.17 in 10.0 mi South 4.6 mph - N/A   Clear
6:56 PM 12.0 °F 1.5 °F 5.0 °F 73% 30.16 in 10.0 mi SSE 6.9 mph - N/A   Clear
7:56 PM 10.0 °F -0.9 °F 3.9 °F 76% 30.17 in 10.0 mi South 6.9 mph - N/A   Clear
8:56 PM 12.0 °F -0.4 °F 5.0 °F 73% 30.16 in 10.0 mi South 9.2 mph - N/A   Clear
9:56 PM 16.0 °F 2.3 °F 8.1 °F 71% 30.13 in 10.0 mi South 12.7 mph - N/A   Clear
10:56 PM 17.1 °F 5.0 °F 9.0 °F 71% 30.12 in 10.0 mi SSE 10.4 mph - N/A   Clear
11:56 PM 16.0 °F 2.9 °F 8.1 °F 71% 30.12 in 10.0 mi South 11.5 mph - N/A   Clear